Location: Bathurst
(33.4193°S, 149.5775°E)
Time: 01:50:11
(UTC+10:00)

A-11 Canister half - Pass Details

Date: 15 June 2021
Orbit: 1513 x 1687 km, 47.2° (Epoch: 28 July)

Event Time Altitude Azimuth Distance (km) Brightness Sun altitude
Rises 19:58:01 0° 260° (W) 4,742 12.5 -36.1°
Reaches altitude 10° 20:01:25 10° 252° (WSW) 3,785 11.7 -36.8°
Maximum altitude 20:10:11 37° 186° (S) 2,341 9.8 -38.6°
Enters shadow 20:10:13 37° 186° (S) 2,341 9.8 -38.6°
